{"data":{"norad_id":61849,"intl_designator":"2024-202E","name":"STARLINK-32346","alt_names":[],"object_type":"PAYLOAD","status":"ACTIVE","operator":null,"country":"US","launch_date":"2024-11-07","launch_site_code":"AFETR","launch_vehicle":null,"mission":null,"orbit_class":"UNKNOWN","rcs_meters":null,"size_class":null,"mass_kg":null,"dimensions":null,"purposes":["comms"],"wikipedia_slug":null,"has_3d_model":false,"image_url":null,"decayed_at":null,"tle_current":{"epoch":"2026-09-21T04:25:12.025344Z","epoch_age_seconds":129403,"freshness":"FRESH","line1":"1 61849U 24202E   26264.18416696 -.00001457  00000+0 -43447-4 0  9993","line2":"2 61849  43.0016 202.8921 0001256 264.8970  95.1738 15.27574480105358","mean_motion":15.2757448,"eccentricity":0.0001256,"inclination_deg":43.0016,"raan_deg":202.8921,"arg_perigee_deg":264.897,"mean_anomaly_deg":95.1738,"bstar":-4.3447e-5,"rev_number":10535,"period_min":94.267089353313,"perigee_km":482.20385790554,"apogee_km":483.92739200493,"semimajor_km":6861.2026249552,"source":"CELESTRAK","updated_at":"2026-09-22T09:00:49.440484Z"}}}